Weather History for Harare Kutsaga, Zimbabwe

Change the Weather History Date:

Tuesday, January 8, 2013

  Actual Average Record
Temperature  
Mean Temperature 68 °F -  
Max Temperature 78 °F 79 °F 89 °F (2003)
Min Temperature 58 °F 60 °F 58 °F (2013)
Cooling Degree Days 3    
Growing Degree Days 18 (Base 50)    
Moisture  
Dew Point 61 °F    
Average Humidity 76    
Maximum Humidity 100    
Minimum Humidity 57    
Precipitation  
Precipitation 0.00 in 0.23 in - ()
Sea Level Pressure  
Sea Level Pressure 30.14 in    
Wind  
Wind Speed 5 mph ()    
Max Wind Speed 9 mph    
Max Gust Speed -    
Visibility 7.2 miles    
Events Rain , Thunderstorm    
Averages and records for this station are not official NWS values.
T = Trace of Precipitation, MM = Missing Value Source: Averaged Metar Reports

Daily Weather History Graph

Daily Weather History Graph

Search for Another Location

Airport:

Trip Planner

Search our weather history database for the weather conditions in past years. The results will help you decide how hot, cold, wet, or windy it might be!

Date:

Astronomy

Jan. 08, 2013 Rise Set
Actual Time 5:27 AM CAT 6:36 PM CAT
Civil Twilight 5:04 AM CAT 7:00 PM CAT
Nautical Twilight 4:35 AM CAT 7:28 PM CAT
Astronomical Twilight 4:06 AM CAT 7:57 PM CAT
Moon 1:50 AM CAT (1/8) 3:13 PM CAT (1/8)
Length of Visible Light 13h 56m
Length of Day
13h 08m
Waning Crescent, 16% of the Moon is Illuminated
Jan 8
Waning Crescent
Jan 11
New
Jan 19
First Quarter
Jan 27
Full
Feb 3
Last Quarter

Hourly Weather History & Observations

Time (CAT) Temp. Dew Point Humidity Pressure Visibility Wind Dir Wind Speed Gust Speed Precip Events Conditions
2:00 AM 60.8 °F 59.0 °F 94% 30.15 in - SE 5.8 mph - N/A   Clear
5:00 AM 59.0 °F 59.0 °F 100% 30.15 in 5.6 mi Calm Calm - N/A   Unknown
6:00 AM 59.0 °F 59.0 °F 100% 30.15 in 5.6 mi SE 2.3 mph - N/A   Unknown
7:00 AM 64.4 °F 60.8 °F 88% 30.18 in - SE 6.9 mph - N/A   Clear
8:00 AM 69 °F 58 °F 60%  in 12 mi SSE 4.6 mph - -   Clear
8:00 AM 68.0 °F 59.0 °F 73% 30.18 in - SSE 8.1 mph - N/A   Clear
9:00 AM 73.4 °F 59.0 °F 61% 30.18 in 6.2 mi SE 9.2 mph - N/A   Partly Cloudy
10:00 AM 75.2 °F 59.0 °F 57% 30.18 in 6.2 mi ESE 8.1 mph - N/A   Mostly Cloudy
11:00 AM 75.2 °F 60.8 °F 61% 30.18 in 6.2 mi Variable 4.6 mph - N/A   Mostly Cloudy
12:00 PM 77.0 °F 60.8 °F 57% 30.15 in 6.2 mi South 6.9 mph - N/A   Mostly Cloudy
1:00 PM 77.0 °F 60.8 °F 57% 30.15 in 6.2 mi SE 6.9 mph - N/A Rain Light Rain Showers
2:00 PM 71.6 °F 66.2 °F 83% 30.12 in 6.2 mi Variable 2.3 mph - N/A Rain Light Rain Showers
3:00 PM 69.8 °F 64.4 °F 83% 30.09 in 6.2 mi SSE 5.8 mph - N/A   Mostly Cloudy
4:00 PM 73.4 °F 66.2 °F 78% 30.06 in 6.2 mi North 3.5 mph - N/A   Mostly Cloudy
5:00 PM 77.0 °F 64.4 °F 65% 30.06 in 6.2 mi South 3.5 mph - N/A   Mostly Cloudy
6:00 PM 73.4 °F 62.6 °F 69% 30.09 in 6.2 mi SSE 9.2 mph - N/A   Scattered Clouds
7:00 PM 69.8 °F 62.6 °F 78% 30.12 in 6.2 mi SSE 6.9 mph - N/A Thunderstorm Thunderstorm
8:00 PM 68 °F 62 °F 76%  in 19 mi SSE 4.6 mph - - Thunderstorm Light Thunderstorm
8:00 PM 68.0 °F 62.6 °F 83% 30.12 in 6.2 mi SSE 4.6 mph - N/A   Partly Cloudy
10:00 PM 66.2 °F 60.8 °F 83% 30.18 in 6.2 mi East 8.1 mph - N/A   Partly Cloudy
11:00 PM 64.4 °F 60.8 °F 88% 30.18 in 6.2 mi ESE 6.9 mph - N/A   Partly Cloudy